Torna al catalogo

PRAETORIAN SDA_604

AttivoMilitarePO
NORAD 65567·PAYLOAD·🇺🇸 United States

Lanciato Sep 10, 2025 da Vandenberg Space Force Base

Loading…

Prossimi Passaggi (prossime 24 ore)

TLE

AggiornatoSource: Space-Track

Epoca: Sep 14, 2026, 11:40 UTC

1 65567U 25203C   26257.48651800  .00000055  00000-0  39698-4 0  9994
2 65567  81.3026 288.5839 0004810 329.0218  31.0654 13.83056380 51026

Traccia PRAETORIAN SDA_604 in tempo reale con AllMySat

Download on the App Store